Location: Alsip
(41.6689°N, 87.7387°W)
Time: 14:30:11
(UTC+00:00)

Meteor 1-27 Rocket - Pass Details

Date: 14 July 2020
Orbit: 830 x 910 km, 81.3° (Epoch: 04 August)

Event Time Altitude Azimuth Distance (km) Brightness Sun altitude
Rises 05:56:52 0° 350° (N) 3,429 8.1 -26.7°
Reaches altitude 10° 05:59:16 10° 351° (N) 2,500 7.1 -26.7°
Maximum altitude 06:04:58 86° 80° (E) 879 3.6 -26.7°
Enters shadow 06:05:26 76° 152° (SSE) 901 3.6 -26.7°
